FW3855 Weather Reports


time (UTC)temp
C
wind
direction
speed
KPH
gust
KPH
rain 1hr
cm
rain 24hr
cm
rain mn
cm
humidity
%
barometer
mb
20260905123311 -17 0.0 0.0 0.00 0.00 0.00 1018.6
20260905122812 -17 0.0 0.0 0.00 0.00 0.00 1018.5
20260905122306 -17 0.0 0.0 0.00 0.00 0.00 1018.5
20260905121713 -17 212 4.8 9.7 0.00 0.00 0.00 1018.5
20260905121205 22 212 4.8 11.3 0.00 0.00 0.00 14 1018.4
20260905120656 22 212 4.8 19.3 0.00 0.00 0.00 14 1018.4
20260905120150 22 172 4.8 19.3 0.00 0.00 0.00 14 1018.5
20260905115644 22 193 4.8 12.9 0.00 0.00 0.00 14 1018.5
20260905115137 22 169 4.8 12.9 0.00 0.00 0.00 15 1018.5
20260905114631 22 207 4.8 17.7 0.00 0.00 0.00 15 1018.5
20260905114126 22 155 4.8 17.7 0.00 0.00 0.00 15 1018.5
20260905113619 22 156 4.8 12.9 0.00 0.00 0.00 16 1018.5
20260905113113 23 188 4.8 14.5 0.00 0.00 0.00 17 1018.4
20260905112607 23 185 6.4 19.3 0.00 0.00 0.00 16 1018.3
20260905112101 23 159 8.0 19.3 0.00 0.00 0.00 16 1018.4
20260905111556 23 133 6.4 24.1 0.00 0.00 0.00 16 1018.4
20260905111049 23 180 6.4 24.1 0.00 0.00 0.00 16 1018.3
20260905110542 23 136 6.4 16.1 0.00 0.00 0.00 16 1018.2
20260905110037 23 176 8.0 24.1 0.00 0.00 0.00 16 1018.2
20260905105531 23 105 8.0 24.1 0.00 0.00 0.00 16 1018.2
20260905105025 23 174 8.0 17.7 0.00 0.00 0.00 16 1018.2
20260905104519 23 169 6.4 17.7 0.00 0.00 0.00 16 1018.2
20260905104013 23 165 4.8 17.7 0.00 0.00 0.00 16 1018.2
20260905103507 23 128 4.8 16.1 0.00 0.00 0.00 17 1018.2
20260905103001 23 122 4.8 14.5 0.00 0.00 0.00 16 1018.3
20260905102455 23 207 4.8 17.7 0.00 0.00 0.00 15 1018.2
20260905101455 23 172 6.4 19.3 0.00 0.00 0.00 15 1018.3
20260905100958 23 210 6.4 19.3 0.00 0.00 0.00 13 1018.3
20260905100455 23 153 6.4 20.9 0.00 0.00 0.00 13 1018.3
20260905095951 23 152 8.0 20.9 0.00 0.00 0.00 13 1018.3
20260905095451 23 148 8.0 24.1 0.00 0.00 0.00 13 1018.2
20260905094951 23 207 8.0 24.1 0.00 0.00 0.00 13 1018.2
20260905094452 23 82 4.8 17.7 0.00 0.00 0.00 12 1018.3
20260905093448 23 256 6.4 19.3 0.00 0.00 0.00 13 1018.2
20260905092949 23 113 6.4 17.7 0.00 0.00 0.00 12 1018.1
20260905092449 23 140 6.4 17.7 0.00 0.00 0.00 13 1018.1
20260905091945 23 162 3.2 17.7 0.00 0.00 0.00 13 1018.2
20260905091446 23 153 4.8 16.1 0.00 0.00 0.00 11 1018.2
20260905090947 23 125 6.4 19.3 0.00 0.00 0.00 10 1018.1
20260905090446 23 98 6.4 19.3 0.00 0.00 0.00 12 1018.1
20260905085947 23 188 6.4 16.1 0.00 0.00 0.00 12 1018.1
20260905085445 23 195 6.4 19.3 0.00 0.00 0.00 12 1018.1
20260905084939 23 184 4.8 19.3 0.00 0.00 0.00 12 1018.1
20260905084434 23 195 3.2 12.9 0.00 0.00 0.00 11 1018.1
20260905083932 23 210 4.8 14.5 0.00 0.00 0.00 11 1018.1
20260905083431 23 120 8.0 22.5 0.00 0.00 0.00 11 1018.3
20260905082933 23 194 9.7 22.5 0.00 0.00 0.00 10 1018.3
20260905082432 23 153 9.7 22.5 0.00 0.00 0.00 10 1018.3
20260905081433 23 208 6.4 17.7 0.00 0.00 0.00 9 1018.4
20260905080932 23 160 6.4 22.5 0.00 0.00 0.00 9 1018.5
20260905080432 23 179 9.7 22.5 0.00 0.00 0.00 9 1018.4
20260905075933 23 156 8.0 20.9 0.00 0.00 0.00 9 1018.4
20260905075431 23 182 6.4 20.9 0.00 0.00 0.00 9 1018.4
20260905074933 23 190 6.4 17.7 0.00 0.00 0.00 9 1018.5
20260905074427 23 201 4.8 16.1 0.00 0.00 0.00 9 1018.5
20260905073928 23 195 6.4 19.3 0.00 0.00 0.00 9 1018.6
20260905073427 23 173 6.4 19.3 0.00 0.00 0.00 8 1018.5
20260905072927 23 172 3.2 14.5 0.00 0.00 0.00 8 1018.5
20260905072429 23 146 4.8 14.5 0.00 0.00 0.00 8 1018.5
20260905071928 23 214 8.0 19.3 0.00 0.00 0.00 8 1018.5
20260905070929 23 148 4.8 14.5 0.00 0.00 0.00 8 1018.5
20260905070429 23 217 4.8 11.3 0.00 0.00 0.00 8 1018.4
20260905065924 23 158 6.4 12.9 0.00 0.00 0.00 7 1018.4
20260905065424 23 185 6.4 12.9 0.00 0.00 0.00 7 1018.4
20260905064924 23 155 4.8 11.3 0.00 0.00 0.00 8 1018.3
20260905063925 23 151 3.2 12.9 0.00 0.00 0.00 7 1018.2
20260905063425 23 183 3.2 12.9 0.00 0.00 0.00 7 1018.2
20260905061925 23 216 8.0 19.3 0.00 0.00 0.00 6 1018.1
20260905060919 23 139 8.0 17.7 0.00 0.00 0.00 6 1018.0
20260905060421 23 215 8.0 17.7 0.00 0.00 0.00 6 1018.1
20260905055421 24 186 8.0 17.7 0.00 0.00 0.00 6 1018.0
20260905054919 24 226 6.4 17.7 0.00 0.00 0.00 6 1018.0
20260905054418 24 120 8.0 19.3 0.00 0.00 0.00 5 1017.8
20260905053918 24 182 9.7 19.3 0.00 0.00 0.00 5 1018.0
20260905053418 24 128 12.9 25.7 0.00 0.00 0.00 5 1017.8
20260905052918 25 235 12.9 30.6 0.00 0.00 0.00 5 1018.0
20260905052422 25 198 14.5 30.6 0.00 0.00 0.00 5 1017.8
20260905051921 25 219 14.5 30.6 0.00 0.00 0.00 5 1017.8
20260905051411 25 205 12.9 30.6 0.00 0.00 0.00 6 1017.7
20260905050910 25 140 12.9 30.6 0.00 0.00 0.00 5 1017.8
20260905045909 25 136 12.9 30.6 0.00 0.00 0.00 7 1017.7
20260905045408 25 151 12.9 29.0 0.00 0.00 0.00 7 1017.7
20260905044910 25 196 9.7 27.4 0.00 0.00 0.00 8 1017.7
20260905044407 25 252 9.7 27.4 0.00 0.00 0.00 9 1017.6
20260905043906 25 162 11.3 25.7 0.00 0.00 0.00 9 1017.6
20260905043406 25 180 12.9 25.7 0.00 0.00 0.00 10 1017.6
20260905042907 25 197 14.5 35.4 0.00 0.00 0.00 11 1017.6
20260905042407 25 202 12.9 35.4 0.00 0.00 0.00 12 1017.5
20260905041905 25 187 9.7 29.0 0.00 0.00 0.00 13 1017.5
20260905040906 25 198 8.0 19.3 0.00 0.00 0.00 16 1017.4
20260905040414 25 213 6.4 17.7 0.00 0.00 0.00 15 1017.4
20260905035908 25 180 6.4 22.5 0.00 0.00 0.00 15 1017.4
20260905035403 25 250 8.0 22.5 0.00 0.00 0.00 14 1017.3
20260905034900 25 103 6.4 20.9 0.00 0.00 0.00 15 1017.2
20260905033338 25 159 6.4 19.3 0.00 0.00 0.00 15 1017.0
20260905032833 25 60 8.0 22.5 0.00 0.00 0.00 15 1017.0
20260905032327 25 207 8.0 22.5 0.00 0.00 0.00 15 1017.0
20260905031821 25 240 9.7 27.4 0.00 0.00 0.00 15 1016.9
20260905031318 25 176 9.7 27.4 0.00 0.00 0.00 15 1016.8
20260905030809 25 163 8.0 19.3 0.00 0.00 0.00 16 1016.8
20260905025757 25 179 6.4 16.1 0.00 0.00 0.00 17 1016.6
20260905025251 25 225 6.4 19.3 0.00 0.00 0.00 17 1016.7
20260905024744 25 197 6.4 19.3 0.00 0.00 0.00 17 1016.6
20260905024239 26 149 6.4 19.3 0.00 0.00 0.00 17 1016.6
20260905023227 26 171 9.7 19.3 0.00 0.00 0.00 16 1016.6
20260905022721 26 153 8.0 17.7 0.00 0.00 0.00 16 1016.6
20260905021709 26 178 11.3 25.7 0.00 0.00 0.00 16 1016.6
20260905021203 26 199 11.3 25.7 0.00 0.00 0.00 15 1016.6
20260905020658 26 209 11.3 25.7 0.00 0.00 0.00 14 1016.5
20260905020151 26 193 11.3 27.4 0.00 0.00 0.00 14 1016.5
20260905015141 27 150 12.9 38.6 0.00 0.00 0.00 13 1016.6
20260905014633 27 133 11.3 33.8 0.00 0.00 0.00 13 1016.5
20260905014127 27 90 12.9 37.0 0.00 0.00 0.00 12 1016.5
20260905013621 27 195 12.9 37.0 0.00 0.00 0.00 12 1016.6
20260905013115 27 241 8.0 25.7 0.00 0.00 0.00 11 1016.6
20260905012609 27 312 8.0 22.5 0.00 0.00 0.00 11 1016.6
20260905012103 28 171 11.3 30.6 0.00 0.00 0.00 10 1016.6
20260905011557 28 231 12.9 33.8 0.00 0.00 0.00 10 1016.5
20260905011051 28 264 11.3 25.7 0.00 0.00 0.00 10 1016.5
20260905010545 29 248 11.3 29.0 0.00 0.00 0.00 11 1016.4
20260905005532 29 195 8.0 25.7 0.00 0.00 0.00 10 1016.4
20260905005027 29 247 9.7 22.5 0.00 0.00 0.00 11 1016.2
20260905004521 29 218 8.0 22.5 0.00 0.00 0.00 11 1016.2
20260905003509 30 142 8.0 24.1 0.00 0.00 0.00 10 1016.4
20260905003004 30 209 8.0 35.4 0.00 0.00 0.00 10 1016.4
20260905002458 30 141 9.7 35.4 0.00 0.00 0.00 10 1016.4
20260905000939 30 149 11.3 37.0 0.00 0.00 0.00 8 1016.4
20260905000433 30 139 14.5 37.0 0.00 0.00 0.00 10 1016.2
20260904235927 30 223 16.1 33.8 0.00 0.00 0.00 10 1016.4
20260904235422 30 203 11.3 33.8 0.00 0.00 0.00 11 1016.4
20260904234915 30 203 9.7 20.9 0.00 0.00 0.00 12 1016.4
20260904233904 30 72 8.0 20.9 0.00 0.00 0.00 13 1016.1
20260904233357 30 228 8.0 22.5 0.00 0.00 0.00 14 1016.1
20260904232852 30 237 9.7 22.5 0.00 0.00 0.00 16 1016.1
20260904232346 30 167 11.3 38.6 0.00 0.00 0.00 15 1016.4
20260904231839 30 131 11.3 38.6 0.00 0.00 0.00 14 1016.5
20260904231334 30 192 8.0 19.3 0.00 0.00 0.00 13 1016.4
20260904230827 30 240 8.0 25.7 0.00 0.00 0.00 14 1016.2
20260904230321 30 82 9.7 25.7 0.00 0.00 0.00 14 1016.4
20260904225815 30 210 12.9 27.4 0.00 0.00 0.00 15 1016.5
20260904225309 30 204 14.5 33.8 0.00 0.00 0.00 14 1016.5
20260904224809 30 176 14.5 33.8 0.00 0.00 0.00 12 1016.6
20260904224308 30 203 12.9 38.6 0.00 0.00 0.00 12 1016.6
20260904223809 30 286 11.3 38.6 0.00 0.00 0.00 11 1016.5
20260904223311 30 212 11.3 32.2 0.00 0.00 0.00 11 1016.5
20260904222306 30 127 9.7 20.9 0.00 0.00 0.00 12 1016.5
20260904221806 31 319 8.0 25.7 0.00 0.00 0.00 13 1016.6
20260904221304 30 187 9.7 29.0 0.00 0.00 0.00 13 1016.7
20260904220805 30 167 12.9 30.6 0.00 0.00 0.00 17 1016.7
20260904220305 30 149 12.9 41.8 0.00 0.00 0.00 17 1016.6
20260904215803 29 203 12.9 41.8 0.00 0.00 0.00 17 1016.5
20260904215305 30 188 12.9 29.0 0.00 0.00 0.00 16 1016.7
20260904214802 30 202 14.5 35.4 0.00 0.00 0.00 16 1016.8
20260904214300 30 179 12.9 35.4 0.00 0.00 0.00 15 1016.8
20260904213805 30 173 12.9 30.6 0.00 0.00 0.00 14 1016.8
20260904213300 30 68 9.7 30.6 0.00 0.00 0.00 15 1016.8
20260904212752 30 181 11.3 35.4 0.00 0.00 0.00 15 1016.8
20260904212253 30 185 12.9 35.4 0.00 0.00 0.00 16 1016.8
20260904211752 30 115 11.3 22.5 0.00 0.00 0.00 16 1016.8
20260904211251 30 193 14.5 35.4 0.00 0.00 0.00 16 1016.9
20260904210750 30 148 14.5 35.4 0.00 0.00 0.00 16 1017.0
20260904210252 30 196 11.3 32.2 0.00 0.00 0.00 15 1017.2
20260904205753 30 276 9.7 32.2 0.00 0.00 0.00 17 1017.2
20260904204751 30 207 11.3 30.6 0.00 0.00 0.00 17 1016.9
20260904202751 30 165 9.7 32.2 0.00 0.00 0.00 18 1017.5
20260904202251 30 184 8.0 29.0 0.00 0.00 0.00 18 1017.4
20260904201252 29 74 11.3 46.7 0.00 0.00 0.00 19 1017.4
20260904200754 29 241 9.7 29.0 0.00 0.00 0.00 22 1017.4
20260904194752 28 179 11.3 48.3 0.00 0.00 0.00 25 1017.6
20260904193752 28 104 8.0 24.1 0.00 0.00 0.00 26 1017.6
20260904193251 28 217 11.3 33.8 0.00 0.00 0.00 28 1017.7
20260904192750 28 98 12.9 38.6 0.00 0.00 0.00 28 1017.7
20260904192252 28 210 12.9 38.6 0.00 0.00 0.00 27 1017.7
20260904191253 28 151 11.3 33.8 0.00 0.00 0.00 28 1018.0
20260904190748 27 281 9.7 29.0 0.00 0.00 0.00 28 1017.8
20260904190247 28 352 11.3 27.4 0.00 0.00 0.00 30 1018.0
20260904185748 27 149 14.5 38.6 0.00 0.00 0.00 30 1018.0
20260904185247 27 139 12.9 38.6 0.00 0.00 0.00 32 1018.2
20260904184745 27 195 11.3 38.6 0.00 0.00 0.00 33 1018.1
20260904184245 27 214 11.3 27.4 0.00 0.00 0.00 33 1018.2
20260904183745 27 103 12.9 27.4 0.00 0.00 0.00 30 1018.2
20260904183245 27 96 14.5 33.8 0.00 0.00 0.00 32 1018.2
20260904182744 27 194 11.3 33.8 0.00 0.00 0.00 31 1018.2
20260904182241 27 102 9.7 30.6 0.00 0.00 0.00 31 1018.3
20260904181240 26 195 12.9 35.4 0.00 0.00 0.00 33 1018.2
20260904180738 26 141 14.5 35.4 0.00 0.00 0.00 34 1018.3
20260904180237 26 63 11.3 30.6 0.00 0.00 0.00 33 1018.3
20260904175236 26 187 8.0 19.3 0.00 0.00 0.00 34 1018.3
20260904174738 26 191 9.7 32.2 0.00 0.00 0.00 34 1018.3
20260904174236 26 83 9.7 32.2 0.00 0.00 0.00 36 1018.3
20260904173738 26 142 8.0 29.0 0.00 0.00 0.00 36 1018.4
20260904173235 26 158 11.3 35.4 0.00 0.00 0.00 37 1018.4
20260904172234 25 123 14.5 46.7 0.00 0.00 0.00 37 1018.4
20260904171734 25 123 14.5 46.7 0.00 0.00 0.00 37 1018.4
20260904170735 25 103 14.5 37.0 0.00 0.00 0.00 40 1018.3
20260904170229 25 153 12.9 37.0 0.00 0.00 0.00 39 1018.2
20260904165723 25 169 12.9 29.0 0.00 0.00 0.00 39 1018.1
20260904165217 25 131 9.7 30.6 0.00 0.00 0.00 39 1018.1
20260904164711 25 232 9.7 35.4 0.00 0.00 0.00 40 1018.2
20260904164205 25 79 9.7 35.4 0.00 0.00 0.00 40 1018.1
20260904163700 25 233 11.3 30.6 0.00 0.00 0.00 40 1018.1
20260904163153 24 141 11.3 35.4 0.00 0.00 0.00 40 1018.1
20260904162648 25 165 9.7 35.4 0.00 0.00 0.00 39 1018.2
20260904162140 24 255 11.3 29.0 0.00 0.00 0.00 38 1018.0
20260904161635 24 101 9.7 29.0 0.00 0.00 0.00 39 1018.1
20260904161129 24 119 9.7 29.0 0.00 0.00 0.00 40 1018.1
20260904160623 23 266 11.3 29.0 0.00 0.00 0.00 41 1018.1
20260904160118 23 148 11.3 29.0 0.00 0.00 0.00 41 1017.8
20260904155611 23 125 12.9 29.0 0.00 0.00 0.00 41 1018.0
20260904155105 23 169 12.9 35.4 0.00 0.00 0.00 40 1017.8
20260904154559 23 183 9.7 35.4 0.00 0.00 0.00 39 1017.8
20260904154054 23 195 9.7 32.2 0.00 0.00 0.00 37 1017.8
20260904153041 23 160 9.7 25.7 0.00 0.00 0.00 36 1017.7
20260904152535 23 98 9.7 24.1 0.00 0.00 0.00 35 1017.7
20260904152030 23 148 8.0 25.7 0.00 0.00 0.00 34 1017.7
20260904151523 23 139 8.0 25.7 0.00 0.00 0.00 32 1017.7
20260904151016 23 121 9.7 40.2 0.00 0.00 0.00 31 1017.7
20260904150511 23 181 9.7 40.2 0.00 0.00 0.00 30 1017.6
20260904150005 23 181 6.4 27.4 0.00 0.00 0.00 29 1017.6
20260904145459 23 191 4.8 27.4 0.00 0.00 0.00 28 1017.6
20260904144953 23 224 4.8 22.5 0.00 0.00 0.00 27 1017.5
20260904144447 22 77 6.4 22.5 0.00 0.00 0.00 26 1017.5
20260904143941 22 262 6.4 16.1 0.00 0.00 0.00 24 1017.5
20260904143435 22 167 4.8 16.1 0.00 0.00 0.00 24 1017.4
20260904142929 22 268 3.2 16.1 0.00 0.00 0.00 21 1017.4
20260904142429 22 325 3.2 16.1 0.00 0.00 0.00 21 1017.4
20260904141926 22 231 4.8 17.7 0.00 0.00 0.00 18 1017.3
20260904141425 22 215 3.2 17.7 0.00 0.00 0.00 19 1017.4
20260904140923 22 300 3.2 17.7 0.00 0.00 0.00 18 1017.3
20260904135920 21 252 4.8 19.3 0.00 0.00 0.00 19 1017.0
20260904134913 -17 0.0 0.0 0.00 0.00 0.00 1016.7
20260904134412 -17 0.0 0.0 0.00 0.00 0.00 1016.8
20260904133909 -17 0.0 0.0 0.00 0.00 0.00 1016.7
20260904133320 -17 0.0 0.0 0.00 0.00 0.00 1016.7
20260904132819 -17 0.0 0.0 0.00 0.00 0.00 1016.7
20260904132212 -17 0.0 0.0 0.00 0.00 0.00 1016.7
20260904131209 -17 0.0 0.0 0.00 0.00 0.00 1016.6
20260904130710 -17 0.0 0.0 0.00 0.00 0.00 1016.6
20260904124515 -17 0.0 0.0 0.00 0.00 0.00 1016.4
20260904123922 -17 0.0 0.0 0.00 0.00 0.00 1016.4